History for Miami, FL

Thursday, January 17, 2013 — View Current Conditions

Jump to Data:

Date:
Airport Code:
Recently Viewed Airport Codes: KMIA
Daily Summary
  Actual Average Record
Temperature
Mean Temperature 71°F 68°F  
Max Temperature 79°F 76°F 85°F (1989)
Min Temperature 62°F 60°F 39°F (1965)
Degree Days
Heating Degree Days 0 2  
Month to date heating degree days 0 34  
Since 1 July heating degree days 16 71  
Cooling Degree Days 6 5  
Month to date cooling degree days 178 85  
Year to date cooling degree days 178 85  
Growing Degree Days 20 (Base 50)    
Moisture
Dew Point 66°F    
Average Humidity 79    
Maximum Humidity 97    
Minimum Humidity 60    
Precipitation
Precipitation 0.13 in 0.05 in 1.06 in (1970)
Month to date precipitation 0.33 0.85  
Year to date precipitation 0.33 0.85  
Snow
Snow 0.00 in in in ()
Month to date snowfall 0.0  
Since 1 July snowfall 0.0  
Snow Depth 0.00 in    
Sea Level Pressure
Sea Level Pressure 30.06 in    
Wind
Wind Speed 6 mph (SW)    
Max Wind Speed 16 mph    
Max Gust Speed 28 mph    
Visibility 9 miles    
Events Rain    
T = Trace of Precipitation, MM = Missing Value Source: NWS Daily Summary

Show full METARS

(help) - Comma Delimited File

Hourly Observations

Time(EST) Temperature Dew Point Humidity Sea Level Pressure Visibility Wind Direction Wind Speed Gust Speed Precipitation Events Conditions
12:53 AM 70.0°F 68.0°F 93% 30.05 in 10.0 miles Calm Calm - N/A   Scattered Clouds
1:53 AM 71.1°F 66.0°F 84% 30.04 in 10.0 miles SE 5.8 mph - N/A   Mostly Cloudy
2:53 AM 71.1°F 66.9°F 87% 30.05 in 10.0 miles Calm Calm - N/A   Scattered Clouds
3:53 AM 70.0°F 66.9°F 90% 30.04 in 10.0 miles Calm Calm - N/A   Scattered Clouds
4:53 AM 69.1°F 66.9°F 93% 30.04 in 10.0 miles Calm Calm - N/A   Scattered Clouds
5:53 AM 70.0°F 68.0°F 93% 30.05 in 10.0 miles Calm Calm - N/A   Scattered Clouds
6:53 AM 70.0°F 68.0°F 93% 30.06 in 10.0 miles Calm Calm - N/A   Scattered Clouds
7:53 AM 72.0°F 69.1°F 91% 30.08 in 10.0 miles SE 3.5 mph - N/A   Scattered Clouds
8:53 AM 75.0°F 70.0°F 84% 30.09 in 10.0 miles SSE 6.9 mph - N/A   Scattered Clouds
9:53 AM 78.1°F 68.0°F 71% 30.10 in 10.0 miles SSE 12.7 mph 18.4 mph N/A   Mostly Cloudy
10:53 AM 78.1°F 69.1°F 74% 30.09 in 10.0 miles SSE 11.5 mph - N/A   Mostly Cloudy
11:43 AM 78.8°F 68.0°F 69% 30.07 in 10.0 miles South 12.7 mph - N/A   Mostly Cloudy
11:49 AM 77.0°F 68.0°F 74% 30.07 in 10.0 miles South 13.8 mph 18.4 mph N/A   Mostly Cloudy
11:53 AM 77.0°F 69.1°F 76% 30.07 in 10.0 miles SW 11.5 mph - 0.00 in Rain Light Rain
12:10 PM 71.6°F 66.2°F 83% 30.07 in 4.0 miles WSW 10.4 mph 19.6 mph 0.00 in Rain Rain
12:25 PM 71.6°F 68.0°F 88% 30.07 in 5.0 miles SW 6.9 mph - 0.06 in Rain Light Rain
12:37 PM 71.6°F 68.0°F 88% 30.06 in 2.5 miles SW 8.1 mph - 0.09 in Rain Rain
12:53 PM 71.1°F 68.0°F 90% 30.06 in 2.5 miles SW 12.7 mph - 0.11 in Rain Light Rain
1:09 PM 71.6°F 69.8°F 94% 30.05 in 5.0 miles SW 8.1 mph - 0.01 in Rain Light Rain
1:19 PM 71.6°F 68.0°F 88% 30.04 in 3.0 miles West 8.1 mph - 0.01 in Rain Light Rain
1:53 PM 71.1°F 69.1°F 93% 30.01 in 7.0 miles SE 5.8 mph - 0.02 in   Overcast
2:53 PM 73.0°F 69.1°F 87% 30.01 in 10.0 miles SSE 3.5 mph - N/A   Mostly Cloudy
3:53 PM 75.0°F 68.0°F 79% 30.01 in 10.0 miles Variable 4.6 mph - N/A   Mostly Cloudy
4:53 PM 77.0°F 66.9°F 71% 30.01 in 10.0 miles SW 8.1 mph - N/A   Scattered Clouds
5:53 PM 77.0°F 63.0°F 62% 30.02 in 10.0 miles WSW 8.1 mph - N/A   Scattered Clouds
6:53 PM 73.9°F 64.9°F 73% 30.05 in 10.0 miles West 9.2 mph - N/A   Partly Cloudy
7:53 PM 68.0°F 61.0°F 78% 30.09 in 10.0 miles NW 13.8 mph 25.3 mph N/A   Mostly Cloudy
8:53 PM 64.0°F 57.9°F 80% 30.12 in 10.0 miles NW 9.2 mph - N/A   Scattered Clouds
9:53 PM 64.0°F 55.0°F 73% 30.12 in 10.0 miles NW 8.1 mph - N/A   Scattered Clouds
10:53 PM 63.0°F 55.0°F 75% 30.11 in 10.0 miles NW 8.1 mph - N/A   Scattered Clouds
11:53 PM 62.1°F 55.0°F 78% 30.12 in 10.0 miles NW 11.5 mph 21.9 mph N/A   Scattered Clouds